Погода в Бенитсесе

Греция     39°32′30″N   19°54′50″E
темп.,
°C
ветер,
м/с
пор.,
м/с
влажн.,
%
обл.,
%
осадки,
мм/ч
давл.,
гПа
погр.,
м
6 марта, сб
сб623:00+14ю2365100 0.1 1021777
02:00+14ююв3367100 0.3 1021636
05:00+14юв446993 0.2 1020607
08:00+12вюв448697 3.5 1021349
11:00+12в3384100 2.6 1022359
14:00+12вюв3378100 2.8 1022325
17:00+13ююв117827 0.0 1022344
20:00+13ссз227716 0.0 1022465
7 марта, вс
вс723:00+13ссз33700 0.0 1024456
02:00+13ссв22710 0.0 1024255
05:00+13ссв33720 0.0 1023283
08:00+12всв32720 0.0 1024240
11:00+12св11670 0.0 1023177
14:00+13зюз22660 0.0 1023218
17:00+14зсз22710 0.0 1021277
20:00+14св22690 0.0 1021240
8 марта, пн
пн823:00+14юв22680 0.0 1021238
02:00+14юв34720 0.0 1021501
05:00+13юв44751 0.0 1019541
08:00+13вюв447728 0.0 1018454
11:00+13юв3477100 0.1 1018501
14:00+14ююв4477100 0.1 1017583
17:00+14ю337238 0.0 1015607
20:00+14ю127219 0.0 1016432
9 марта, вт
вт923:00+13всв11740 0.0 1016383
02:00+13в22760 0.0 1016279
05:00+13в227398 0.0 1015249
08:00+12всв227297 0.0 1015221
11:00+13в1168100 0.0 1015164
14:00+14зюз236765 0.0 1014268
17:00+14сз33680 0.0 1013406
20:00+14ссз44720 0.0 1014354
10 марта, ср
ср1023:00+14ссз226833 0.0 1015251
02:00+14ссз226856 0.0 1015291
05:00+13с226893 0.0 1015331
08:00+13в226990 0.0 1015201
11:00+13вюв1170100 0.2 1016240
14:00+11всв2285100 2.8 1016193
17:00+11всв3384100 2.2 1016290
20:00+11с2286100 3.1 1016258